Regional Weather Roundup
Issued by NWS Upton, NY

Current Version | Previous Version | Text Only | Print | Product List | Glossary On
Versions: 1 2 3 4 5 6 7 8 9 10 11 12 13 14 15 16 17 18 19 20 21 22 23 24 25 26 27 28 29 30 31 32 33 34 35 36 37 38 39 40 41 42 43 44 45 46 47 48 49 50
704
ASUS41 KOKX 270304
RWROKX

REGIONAL WEATHER ROUNDUP
NATIONAL WEATHER SERVICE NEW YORK NY
1100 PM EDT THU MAY 26 2016

NOTE: "FAIR" INDICATES FEW OR NO CLOUDS BELOW 12,000 FEET WITH NO
SIGNIFICANT WEATHER AND/OR OBSTRUCTIONS TO VISIBILITY.

NYZ071-072-176-178-NJZ106-104-270400-
NEW YORK CITY METRO AREA


CITY           SKY/WX    TMP DP  RH WIND       PRES   REMARKS
CENTRAL PARK   CLEAR     76  52  43 VRB3      30.08R
LAGUARDIA APRT PTCLDY    73  62  68 S10       30.05S
KENNEDY INTL   MOCLDY    66  60  81 S8        30.08R
NEWARK/LIBERTY PTCLDY    77  54  44 S5        30.05R
BRNX BOT. GARD   N/A     72  54  53 SE9       30.08R
TETERBORO      CLEAR     75  51  43 S7        30.04R
$$

NYZ177-179-078>081-270400-
LONG ISLAND NEW YORK

CITY           SKY/WX    TMP DP  RH WIND       PRES   REMARKS
FARMINGDALE    CLEAR     67  57  70 S3        30.08S
ISLIP          PTCLDY    66  57  72 S6        30.08S
SHIRLEY        CLEAR     65  58  78 S6        30.10S
RIVERHEAD        N/A     64  57  77 CALM      30.08S
WESTHAMPTON    CLEAR     62  56  80 SW3       30.12R
EAST HAMPTON   FAIR      60  56  86 S5        30.09S
MONTAUK POINT    N/A     62  57  83 VRB3      30.11S
$$

NYZ052-065-067-270400-
HUDSON VALLEY

CITY           SKY/WX    TMP DP  RH WIND       PRES   REMARKS
WHITE PLAINS   CLEAR     69  51  52 CALM      30.07R
NEWBURGH       NOT AVBL
MONTGOMERY     PTCLDY    66  57  72 CALM      30.04R
POUGHKEEPSIE   CLOUDY    71  56  58 SE3       30.03R
ALBANY         MOCLDY    77  55  46 S8        30.02R
$$

NJZ001-105-106-008-010-013-015-019>022-104-270400-
NEW JERSEY

CITY           SKY/WX    TMP DP  RH WIND       PRES   REMARKS
NEWARK/LIBERTY PTCLDY    77  54  44 S5        30.05R
TETERBORO      CLEAR     75  51  43 S7        30.04R
CALDWELL       CLEAR     75  54  47 CALM      30.05R
MORRISTOWN     PTCLDY    64  52  63 CALM      30.05F
SOMERVILLE     PTCLDY    69  58  67 CALM      30.04R
SUSSEX         PTCLDY    68  59  73 CALM      30.05S
ANDOVER          N/A     67  59  75 CALM      30.07R
TRENTON        PTCLDY    74  54  49 S6        30.05S
MILLVILLE      CLEAR     73  63  70 VRB3      30.07R
ATLANTIC CITY  CLEAR     68  62  81 S5        30.08S
WRIGHTSTOWN    CLEAR     71  58  62 S6        30.04S
TOMS RIVER     PTCLDY    72  57  60 S8        30.08R
BELMAR         PTCLDY    72  57  59 S6        30.08R
$$

PAZ047>061-062-071-270400-
EASTERN PENNSYLVANIA

CITY           SKY/WX    TMP DP  RH WIND       PRES   REMARKS
PHILADELPHIA   PTCLDY    76  57  51 SW3       30.06R
ALLENTOWN      CLOUDY    80  56  43 S9        30.05R
SCRANTON       MOCLDY    78  57  48 S8        30.05R
$$

CTZ002-004>006-009-010-012-RIZ004-006-007-MAZ004-011-015-270400-
SOUTHERN NEW ENGLAND
 IN CT

CITY           SKY/WX    TMP DP  RH WIND       PRES   REMARKS
BRADLEY INTL   PTCLDY    73  55  53 S8        30.06R
HARTFORD       CLEAR     74  54  49 S5        30.06S
DANBURY        CLEAR     73  49  42 S8        30.08S
WTRBRY/OXFORD    N/A     70  48  46 S5        30.09S
BRIDGEPORT     CLEAR     70  53  54 S3        30.07R
MERIDEN        CLEAR     67  56  67 CALM      30.07S
NEW HAVEN      CLEAR     66  55  67 CALM      30.08R
CHESTER        FAIR      70  52  52 SW6       30.09S
GROTON         CLEAR     61  56  83 CALM      30.09R
WILLIMANTIC    CLEAR     69  56  62 CALM      30.09R

 IN RI

CITY           SKY/WX    TMP DP  RH WIND       PRES   REMARKS
PROVIDENCE     MOCLDY    64  56  75 CALM      30.09R
BLOCK ISLAND   CLEAR     61  55  81 SW12      30.11R
WESTERLY       CLEAR     63  53  70 S3        30.10S

 IN MA

CITY           SKY/WX    TMP DP  RH WIND       PRES   REMARKS
BOSTON         MOCLDY    60  55  83 CALM      30.09R
WORCESTER      PTCLDY    72  54  53 CALM      30.11R
WESTFIELD      PTCLDY    70  57  63 S5        30.05S
PROVINCETOWN   CLEAR     60  55  83 SE12      30.12R
NANTUCKET      CLEAR     56  53  90 SE7       30.13R
$$

ANZ330-335-338-340-345-350-353-355-270400-
COASTAL MARINE OBSERVATIONS


STATION/POSITION TIME  SKY/WX   TEMP    WIND        PRES    VSBY  WAVE
                                AIR SEA DIR/SP/G                  HT/PER
                 (UTC)          (F)     (DEG/KT/KT) (MB)    (MI)  (FT/S)
NY HARB ENTRANCE 0150            63 60  180/ 12/ 16 1017.6          2/ 3
20S FIRE ISLAND  0150            61 59  190/ 10/ 12 1018.4          2/ 7
GREAT SOUTH BAY  0200            65 69  220/  4/  6   N/A
23 SSW MONTAUK P 0250            60 57  210/ 10/ 10 1018.7          2/ 8
15 E BARNEGAT LI 0222               57                N/A           2/ 7
HUDSON CANYON    0150            59 57              1019.8          2/ 7
KINGS POINT      0200                               1017.4
EXECUTION ROCKS  NOT AVBL
CENTRAL LI SOUND 0215            67     240/  6/ 10   N/A           0
EASTERN LI SOUND 0200            61 54  240/  2/  4   N/A
ROBBINS REEF     0206            71                 1016.8
$$


>>>>>>>>>>>>>>>>>>>>>>>>>>>> KEY <<<<<<<<<<<<<<<<<<<<<<<<<<<
>                                                          <
>     SKY/WX - SKY CONDITION/PRESENT WEATHER               <
>     TMP    - TEMPERATURE IN FAHRENHEIT                   <
>     DP     - DEWPOINT IN FAHRENHEIT                      <
>     RH     - RELATIVE HUMIDITY IN PERCENT                <
>     WIND   - DIRECTION AND SPEED IN MPH                  <
>     PRES   - MEAN SEA LEVEL PRESSURE IN INCHES OF HG     <
>     WCI    - WIND CHILL INDEX                            <
>     VSB    - VISIBILITY IN MILES                         <
>     HX     - HEAT INDEX                                  <
>     TC     - TEMPERATURE IN CELSIUS                      <
>     VRB    - VARIABLE WIND DIRECTION                     <
>                                                          <
>>>>>>>>>>>>>>>>>>>>>>>>>>>> KEY <<<<<<<<<<<<<<<<<<<<<<<<<<<






USA.gov is the U.S. government's official web portal to all federal, state and local government web resources and services.